Time,TemperatureF,DewpointF,PressureIn,WindDirection,WindDirectionDegrees,WindSpeedMPH,WindSpeedGustMPH,Humidity,HourlyPrecipIn,Conditions,Clouds,dailyrainin,SoftwareType,DateUTC
2013-01-21 00:05:00,32.4,30.6,30.09,WSW,248,0.0,0.0,93,0.00,,CLR,0.00,VWS V14.01,2013-01-21 05:05:00,
2013-01-21 00:10:00,32.3,30.8,30.09,WSW,248,0.0,0.0,94,0.00,,CLR,0.00,VWS V14.01,2013-01-21 05:10:00,
2013-01-21 00:15:00,32.2,30.7,30.09,WSW,248,0.0,0.0,94,0.00,,CLR,0.00,VWS V14.01,2013-01-21 05:15:00,
2013-01-21 00:20:00,32.1,30.8,30.09,WSW,248,0.0,0.0,95,0.00,,CLR,0.00,VWS V14.01,2013-01-21 05:20:00,
2013-01-21 00:25:00,32.1,30.8,30.09,WSW,248,0.0,0.0,95,0.00,,CLR,0.00,VWS V14.01,2013-01-21 05:25:00,
2013-01-21 00:30:00,32.0,30.7,30.08,WSW,248,0.0,0.0,95,0.00,,CLR,0.00,VWS V14.01,2013-01-21 05:30:00,
2013-01-21 00:35:00,31.8,30.3,30.09,WSW,248,0.0,0.0,94,0.00,,CLR,0.00,VWS V14.01,2013-01-21 05:35:00,
2013-01-21 00:40:00,31.9,30.1,30.09,WSW,248,0.0,0.0,93,0.00,,CLR,0.00,VWS V14.01,2013-01-21 05:40:00,
2013-01-21 00:45:00,31.9,30.4,30.09,WSW,248,0.0,0.0,94,0.00,,CLR,0.00,VWS V14.01,2013-01-21 05:45:00,
2013-01-21 00:50:00,31.8,30.3,30.09,WSW,248,0.0,0.0,94,0.00,,CLR,0.00,VWS V14.01,2013-01-21 05:50:00,
2013-01-21 00:55:00,31.7,30.4,30.09,WSW,248,0.0,0.0,95,0.00,,CLR,0.00,VWS V14.01,2013-01-21 05:55:00,
2013-01-21 01:00:00,31.6,30.3,30.08,WSW,248,0.0,0.0,95,0.00,,CLR,0.00,VWS V14.01,2013-01-21 06:00:00,
2013-01-21 01:10:00,31.3,30.0,30.08,WSW,248,0.0,0.0,95,0.00,,CLR,0.00,VWS V14.01,2013-01-21 06:10:00,
2013-01-21 01:15:00,31.3,30.0,30.08,WSW,248,0.0,0.0,95,0.00,,CLR,0.00,VWS V14.01,2013-01-21 06:15:00,
2013-01-21 01:20:00,31.2,29.9,30.08,WSW,248,0.0,0.0,95,0.00,,CLR,0.00,VWS V14.01,2013-01-21 06:20:00,
2013-01-21 01:25:00,31.1,29.8,30.08,WSW,248,0.0,0.0,95,0.00,,CLR,0.00,VWS V14.01,2013-01-21 06:25:00,
2013-01-21 01:30:00,31.1,29.8,30.08,WSW,248,0.0,0.0,95,0.00,,CLR,0.00,VWS V14.01,2013-01-21 06:30:00,
2013-01-21 01:35:00,31.0,29.7,30.08,WSW,248,0.0,0.0,95,0.00,,CLR,0.00,VWS V14.01,2013-01-21 06:35:00,
2013-01-21 01:40:00,31.0,29.7,30.08,WSW,248,0.0,0.0,95,0.00,,CLR,0.00,VWS V14.01,2013-01-21 06:40:00,
2013-01-21 01:45:00,30.9,29.6,30.08,WSW,248,0.0,0.0,95,0.00,,CLR,0.00,VWS V14.01,2013-01-21 06:45:00,
2013-01-21 01:50:00,30.9,29.6,30.08,WSW,248,0.0,0.0,95,0.00,,CLR,0.00,VWS V14.01,2013-01-21 06:50:00,
2013-01-21 01:55:00,30.8,29.5,30.08,WSW,248,0.0,0.0,95,0.00,,CLR,0.00,VWS V14.01,2013-01-21 06:55:00,
2013-01-21 02:00:00,30.8,29.5,30.08,WSW,248,0.0,0.0,95,0.00,,CLR,0.00,VWS V14.01,2013-01-21 07:00:00,
2013-01-21 02:05:00,30.8,29.5,30.08,WSW,248,0.0,0.0,95,0.00,,CLR,0.00,VWS V14.01,2013-01-21 07:05:00,
2013-01-21 02:10:00,30.7,29.4,30.08,WSW,248,0.0,0.0,95,0.00,,CLR,0.00,VWS V14.01,2013-01-21 07:10:00,
2013-01-21 02:15:00,30.5,29.2,30.08,WSW,248,0.0,0.0,95,0.00,,CLR,0.00,VWS V14.01,2013-01-21 07:15:00,
2013-01-21 02:20:00,30.5,29.2,30.08,WSW,248,0.0,0.0,95,0.00,,CLR,0.00,VWS V14.01,2013-01-21 07:20:00,
2013-01-21 02:25:00,30.6,29.6,30.08,WSW,248,0.0,0.0,96,0.00,,CLR,0.00,VWS V14.01,2013-01-21 07:25:00,
2013-01-21 02:30:00,30.4,29.1,30.08,WSW,248,0.0,0.0,95,0.00,,CLR,0.00,VWS V14.01,2013-01-21 07:30:00,
2013-01-21 02:35:00,30.2,28.9,30.08,WSW,248,0.0,0.0,95,0.00,,CLR,0.00,VWS V14.01,2013-01-21 07:35:00,
2013-01-21 02:40:00,30.2,29.2,30.08,WSW,248,0.0,0.0,96,0.00,,CLR,0.00,VWS V14.01,2013-01-21 07:40:00,
2013-01-21 02:45:00,30.2,29.2,30.08,WSW,248,0.0,0.0,96,0.00,,CLR,0.00,VWS V14.01,2013-01-21 07:45:00,
2013-01-21 02:50:00,30.1,29.1,30.08,WSW,248,0.0,0.0,96,0.00,,CLR,0.00,VWS V14.01,2013-01-21 07:50:00,
2013-01-21 02:55:00,29.9,28.6,30.08,WSW,248,0.0,0.0,95,0.00,,CLR,0.00,VWS V14.01,2013-01-21 07:55:00,
2013-01-21 03:00:00,29.8,28.5,30.08,WSW,248,0.0,0.0,95,0.00,,CLR,0.00,VWS V14.01,2013-01-21 08:00:00,
2013-01-21 03:05:00,29.7,28.5,30.08,WSW,248,0.0,0.0,95,0.00,,CLR,0.00,VWS V14.01,2013-01-21 08:05:00,
2013-01-21 03:10:00,29.8,28.8,30.08,WSW,248,0.0,0.0,96,0.00,,CLR,0.00,VWS V14.01,2013-01-21 08:10:00,
2013-01-21 03:15:00,29.7,28.7,30.07,WSW,248,0.0,0.0,96,0.00,,CLR,0.00,VWS V14.01,2013-01-21 08:15:00,
2013-01-21 03:20:00,29.6,28.6,30.07,WSW,248,0.0,0.0,96,0.00,,CLR,0.00,VWS V14.01,2013-01-21 08:20:00,
2013-01-21 03:25:00,29.6,28.6,30.08,WSW,248,0.0,0.0,96,0.00,,CLR,0.00,VWS V14.01,2013-01-21 08:25:00,
2013-01-21 03:30:00,29.6,28.6,30.08,WSW,248,0.0,0.0,96,0.00,,CLR,0.00,VWS V14.01,2013-01-21 08:30:00,
2013-01-21 03:35:00,29.6,28.6,30.07,WSW,248,0.0,0.0,96,0.00,,CLR,0.00,VWS V14.01,2013-01-21 08:35:00,
2013-01-21 03:40:00,29.5,28.5,30.08,WSW,248,0.0,0.0,96,0.00,,CLR,0.00,VWS V14.01,2013-01-21 08:40:00,
2013-01-21 03:45:00,29.4,28.4,30.08,WSW,248,0.0,0.0,96,0.00,,CLR,0.00,VWS V14.01,2013-01-21 08:45:00,
2013-01-21 03:50:00,29.4,28.4,30.08,WSW,248,0.0,0.0,96,0.00,,CLR,0.00,VWS V14.01,2013-01-21 08:50:00,
2013-01-21 03:55:00,29.2,28.2,30.07,WSW,248,0.0,0.0,96,0.00,,CLR,0.00,VWS V14.01,2013-01-21 08:55:00,
2013-01-21 04:00:00,29.2,28.2,30.07,WSW,248,0.0,0.0,96,0.00,,CLR,0.00,VWS V14.01,2013-01-21 09:00:00,
2013-01-21 04:05:00,29.2,28.2,30.07,WSW,248,0.0,0.0,96,0.00,,CLR,0.00,VWS V14.01,2013-01-21 09:05:00,
2013-01-21 04:10:00,29.2,28.2,30.07,WSW,248,0.0,0.0,96,0.00,,CLR,0.00,VWS V14.01,2013-01-21 09:10:00,
2013-01-21 04:15:00,29.1,28.1,30.08,WSW,248,0.0,0.0,96,0.00,,CLR,0.00,VWS V14.01,2013-01-21 09:15:00,
2013-01-21 04:20:00,29.0,28.0,30.07,WSW,248,0.0,0.0,96,0.00,,CLR,0.00,VWS V14.01,2013-01-21 09:20:00,
2013-01-21 04:25:00,29.0,28.0,30.07,WSW,248,0.0,0.0,96,0.00,,CLR,0.00,VWS V14.01,2013-01-21 09:25:00,
2013-01-21 04:30:00,28.9,27.9,30.07,WSW,248,0.0,0.0,96,0.00,,CLR,0.00,VWS V14.01,2013-01-21 09:30:00,
2013-01-21 04:35:00,28.9,27.9,30.07,WSW,248,0.0,0.0,96,0.00,,CLR,0.00,VWS V14.01,2013-01-21 09:35:00,
2013-01-21 04:40:00,28.8,27.8,30.07,WSW,248,0.0,0.0,96,0.00,,CLR,0.00,VWS V14.01,2013-01-21 09:40:00,
2013-01-21 04:45:00,28.8,27.8,30.07,WSW,248,0.0,0.0,96,0.00,,CLR,0.00,VWS V14.01,2013-01-21 09:45:00,
2013-01-21 04:50:00,28.7,27.7,30.06,WSW,248,0.0,0.0,96,0.00,,CLR,0.00,VWS V14.01,2013-01-21 09:50:00,
2013-01-21 04:55:00,28.7,27.7,30.06,WSW,248,0.0,0.0,96,0.00,,CLR,0.00,VWS V14.01,2013-01-21 09:55:00,
2013-01-21 05:00:00,28.6,27.6,30.06,WSW,248,0.0,0.0,96,0.00,,CLR,0.00,VWS V14.01,2013-01-21 10:00:00,
2013-01-21 05:05:00,28.5,27.5,30.06,WSW,248,0.0,0.0,96,0.00,,CLR,0.00,VWS V14.01,2013-01-21 10:05:00,
2013-01-21 05:10:00,28.4,27.1,30.07,WSW,248,0.0,0.0,95,0.00,,CLR,0.00,VWS V14.01,2013-01-21 10:10:00,
2013-01-21 05:15:00,28.3,27.0,30.07,WSW,248,0.0,0.0,95,0.00,,CLR,0.00,VWS V14.01,2013-01-21 10:15:00,
2013-01-21 05:20:00,28.2,27.0,30.07,WSW,248,0.0,0.0,95,0.00,,CLR,0.00,VWS V14.01,2013-01-21 10:20:00,
2013-01-21 05:25:00,28.1,26.9,30.07,WSW,248,0.0,0.0,95,0.00,,CLR,0.00,VWS V14.01,2013-01-21 10:25:00,
2013-01-21 05:30:00,28.1,27.1,30.07,WSW,248,0.0,0.0,96,0.00,,CLR,0.00,VWS V14.01,2013-01-21 10:30:00,
2013-01-21 05:35:00,28.1,27.1,30.07,WSW,248,0.0,0.0,96,0.00,,CLR,0.00,VWS V14.01,2013-01-21 10:35:00,
2013-01-21 05:40:00,28.1,27.1,30.07,WSW,248,0.0,0.0,96,0.00,,CLR,0.00,VWS V14.01,2013-01-21 10:40:00,
2013-01-21 05:45:00,28.1,27.1,30.07,WSW,248,0.0,0.0,96,0.00,,CLR,0.00,VWS V14.01,2013-01-21 10:45:00,
2013-01-21 05:50:00,28.0,27.0,30.07,WSW,248,0.0,0.0,96,0.00,,CLR,0.00,VWS V14.01,2013-01-21 10:50:00,
2013-01-21 05:55:00,27.9,26.9,30.07,WSW,248,0.0,0.0,96,0.00,,CLR,0.00,VWS V14.01,2013-01-21 10:55:00,
2013-01-21 06:00:00,27.8,26.8,30.07,WSW,248,0.0,0.0,96,0.00,,CLR,0.00,VWS V14.01,2013-01-21 11:00:00,
2013-01-21 06:05:00,27.8,26.8,30.08,WSW,248,0.0,0.0,96,0.00,,CLR,0.00,VWS V14.01,2013-01-21 11:05:00,
2013-01-21 06:10:00,27.8,26.8,30.07,WSW,248,0.0,0.0,96,0.00,,CLR,0.00,VWS V14.01,2013-01-21 11:10:00,
2013-01-21 06:15:00,27.8,26.8,30.07,WSW,248,0.0,0.0,96,0.00,,CLR,0.00,VWS V14.01,2013-01-21 11:15:00,
2013-01-21 06:20:00,27.7,26.7,30.07,WSW,248,0.0,0.0,96,0.00,,CLR,0.00,VWS V14.01,2013-01-21 11:20:00,
2013-01-21 06:25:00,27.7,26.5,30.07,WSW,248,0.0,0.0,95,0.00,,CLR,0.00,VWS V14.01,2013-01-21 11:25:00,
2013-01-21 06:30:00,27.7,26.7,30.07,WSW,248,0.0,0.0,96,0.00,,CLR,0.00,VWS V14.01,2013-01-21 11:30:00,
2013-01-21 06:35:00,27.6,26.6,30.07,WSW,248,0.0,0.0,96,0.00,,CLR,0.00,VWS V14.01,2013-01-21 11:35:00,
2013-01-21 06:40:00,27.5,26.5,30.07,WSW,248,0.0,0.0,96,0.00,,CLR,0.00,VWS V14.01,2013-01-21 11:40:00,
2013-01-21 06:45:00,27.5,26.5,30.07,WSW,248,0.0,0.0,96,0.00,,CLR,0.00,VWS V14.01,2013-01-21 11:45:00,
2013-01-21 06:50:00,27.5,26.5,30.07,WSW,248,0.0,0.0,96,0.00,,CLR,0.00,VWS V14.01,2013-01-21 11:50:00,
2013-01-21 06:55:00,27.5,26.5,30.07,WSW,248,0.0,0.0,96,0.00,,CLR,0.00,VWS V14.01,2013-01-21 11:55:00,
2013-01-21 07:00:00,27.4,26.4,30.07,WSW,248,0.0,0.0,96,0.00,,CLR,0.00,VWS V14.01,2013-01-21 12:00:00,
2013-01-21 07:05:00,27.3,26.1,30.07,WSW,248,0.0,0.0,95,0.00,,CLR,0.00,VWS V14.01,2013-01-21 12:05:00,
2013-01-21 07:10:00,27.3,26.3,30.07,WSW,248,0.0,0.0,96,0.00,,CLR,0.00,VWS V14.01,2013-01-21 12:10:00,
2013-01-21 07:15:00,27.3,26.3,30.07,WSW,248,0.0,0.0,96,0.00,,CLR,0.00,VWS V14.01,2013-01-21 12:15:00,
2013-01-21 07:20:00,27.3,26.3,30.07,WSW,248,0.0,0.0,96,0.00,,CLR,0.00,VWS V14.01,2013-01-21 12:20:00,
2013-01-21 07:25:00,27.2,26.0,30.07,WSW,248,0.0,0.0,95,0.00,,CLR,0.00,VWS V14.01,2013-01-21 12:25:00,
2013-01-21 07:30:00,27.1,25.9,30.07,WSW,248,0.0,0.0,95,0.00,,CLR,0.00,VWS V14.01,2013-01-21 12:30:00,
2013-01-21 07:35:00,27.1,26.1,30.07,WSW,248,0.0,0.0,96,0.00,,CLR,0.00,VWS V14.01,2013-01-21 12:35:00,
2013-01-21 07:40:00,27.2,26.2,30.07,WSW,248,0.0,0.0,96,0.00,,CLR,0.00,VWS V14.01,2013-01-21 12:40:00,
2013-01-21 07:45:00,27.4,26.4,30.07,WSW,248,0.0,0.0,96,0.00,,CLR,0.00,VWS V14.01,2013-01-21 12:45:00,
2013-01-21 07:50:00,27.5,26.5,30.08,WSW,248,0.0,1.0,96,0.00,,CLR,0.00,VWS V14.01,2013-01-21 12:50:00,
2013-01-21 07:55:00,27.6,26.4,30.07,WSW,248,0.0,0.0,95,0.00,,CLR,0.00,VWS V14.01,2013-01-21 12:55:00,
2013-01-21 08:00:00,27.7,26.7,30.08,WSW,248,0.0,0.0,96,0.00,,FEW120,0.00,VWS V14.01,2013-01-21 13:00:00,
2013-01-21 08:05:00,28.2,27.2,30.08,WSW,248,0.0,0.0,96,0.00,,FEW120,0.00,VWS V14.01,2013-01-21 13:05:00,
2013-01-21 08:10:00,28.4,27.4,30.07,WSW,248,0.0,0.0,96,0.00,,FEW120,0.00,VWS V14.01,2013-01-21 13:10:00,
2013-01-21 08:15:00,28.6,27.4,30.07,WSW,248,0.0,0.0,95,0.00,,FEW120,0.00,VWS V14.01,2013-01-21 13:15:00,
2013-01-21 08:20:00,28.9,27.6,30.08,WSW,248,0.0,0.0,95,0.00,,FEW120,0.00,VWS V14.01,2013-01-21 13:20:00,
2013-01-21 08:25:00,29.2,28.0,30.08,WSW,248,0.0,0.0,95,0.00,,FEW120,0.00,VWS V14.01,2013-01-21 13:25:00,
2013-01-21 08:30:00,29.8,28.5,30.08,WSW,248,0.0,0.0,95,0.00,,FEW120,0.00,VWS V14.01,2013-01-21 13:30:00,
2013-01-21 08:35:00,30.3,29.0,30.08,WSW,247,0.0,0.0,95,0.00,,FEW120,0.00,VWS V14.01,2013-01-21 13:35:00,
2013-01-21 08:40:00,30.6,29.3,30.08,WSW,248,0.0,0.0,95,0.00,,FEW120,0.00,VWS V14.01,2013-01-21 13:40:00,
2013-01-21 08:45:00,31.0,29.7,30.08,WSW,247,0.0,0.0,95,0.00,,FEW120,0.00,VWS V14.01,2013-01-21 13:45:00,
2013-01-21 08:50:00,31.6,30.3,30.08,WSW,247,0.0,0.0,95,0.00,,FEW120,0.00,VWS V14.01,2013-01-21 13:50:00,
2013-01-21 08:55:00,32.3,31.0,30.08,WSW,247,0.0,0.0,95,0.00,,FEW120,0.00,VWS V14.01,2013-01-21 13:55:00,
2013-01-21 09:00:00,32.8,31.3,30.08,WSW,247,0.0,0.0,94,0.00,,FEW080,0.00,VWS V14.01,2013-01-21 14:00:00,
2013-01-21 09:05:00,33.1,31.6,30.08,WSW,247,0.0,0.0,94,0.00,,FEW080,0.00,VWS V14.01,2013-01-21 14:05:00,
2013-01-21 09:10:00,33.6,32.1,30.08,WSW,247,0.0,0.0,94,0.00,,FEW080,0.00,VWS V14.01,2013-01-21 14:10:00,
2013-01-21 09:15:00,34.5,33.0,30.08,WSW,247,0.0,0.0,94,0.00,,FEW080,0.00,VWS V14.01,2013-01-21 14:15:00,
2013-01-21 09:20:00,36.1,34.3,30.08,WSW,248,0.0,0.0,93,0.00,,FEW080,0.00,VWS V14.01,2013-01-21 14:20:00,
2013-01-21 09:25:00,37.4,35.0,30.08,WSW,248,0.0,0.0,91,0.00,,FEW080,0.00,VWS V14.01,2013-01-21 14:25:00,
2013-01-21 09:30:00,38.9,34.5,30.08,ESE,102,0.0,2.0,84,0.00,,FEW080,0.00,VWS V14.01,2013-01-21 14:30:00,
2013-01-21 09:35:00,40.9,33.9,30.08,East,79,0.0,2.0,76,0.00,,FEW080,0.00,VWS V14.01,2013-01-21 14:35:00,
2013-01-21 09:40:00,42.8,34.8,30.08,ENE,72,4.0,4.0,73,0.00,,FEW080,0.00,VWS V14.01,2013-01-21 14:40:00,
2013-01-21 09:45:00,44.3,32.5,30.08,ENE,73,0.0,4.0,63,0.00,,FEW080,0.00,VWS V14.01,2013-01-21 14:45:00,
2013-01-21 09:50:00,45.3,31.8,30.07,ENE,76,0.0,2.0,59,0.00,,FEW080,0.00,VWS V14.01,2013-01-21 14:50:00,
2013-01-21 09:55:00,46.1,31.3,30.07,ENE,72,0.0,1.0,56,0.00,,FEW080,0.00,VWS V14.01,2013-01-21 14:55:00,
2013-01-21 10:00:00,46.9,31.6,30.07,ENE,72,0.0,1.0,55,0.00,,CLR,0.00,VWS V14.01,2013-01-21 15:00:00,
2013-01-21 10:05:00,47.7,32.3,30.07,ENE,76,0.0,2.0,55,0.00,,CLR,0.00,VWS V14.01,2013-01-21 15:05:00,
2013-01-21 10:10:00,48.2,31.9,30.07,ESE,107,1.0,2.0,53,0.00,,CLR,0.00,VWS V14.01,2013-01-21 15:10:00,
2013-01-21 10:15:00,48.9,32.1,30.07,SE,140,0.0,1.0,52,0.00,,CLR,0.00,VWS V14.01,2013-01-21 15:15:00,
2013-01-21 10:20:00,49.4,30.5,30.07,ENE,78,0.0,3.0,48,0.00,,CLR,0.00,VWS V14.01,2013-01-21 15:20:00,
2013-01-21 10:25:00,49.5,31.1,30.07,SE,126,3.0,4.0,49,0.00,,CLR,0.00,VWS V14.01,2013-01-21 15:25:00,
2013-01-21 10:30:00,49.8,29.9,30.06,SE,146,2.0,6.0,46,0.00,,CLR,0.00,VWS V14.01,2013-01-21 15:30:00,
2013-01-21 10:35:00,49.9,30.5,30.06,East,98,1.0,7.0,47,0.00,,CLR,0.00,VWS V14.01,2013-01-21 15:35:00,
2013-01-21 10:40:00,50.6,30.1,30.06,ESE,102,4.0,4.0,45,0.00,,CLR,0.00,VWS V14.01,2013-01-21 15:40:00,
2013-01-21 10:45:00,51.0,29.3,30.06,ENE,66,0.0,5.0,43,0.00,,CLR,0.00,VWS V14.01,2013-01-21 15:45:00,
2013-01-21 10:50:00,51.7,29.4,30.06,NE,49,1.0,4.0,42,0.00,,CLR,0.00,VWS V14.01,2013-01-21 15:50:00,
2013-01-21 10:55:00,52.5,29.5,30.06,SSE,155,2.0,4.0,41,0.00,,CLR,0.00,VWS V14.01,2013-01-21 15:55:00,
2013-01-21 11:00:00,52.8,28.5,30.06,East,85,0.0,4.0,39,0.00,,FEW250,0.00,VWS V14.01,2013-01-21 16:00:00,
2013-01-21 11:05:00,52.9,28.6,30.06,East,81,0.0,2.0,39,0.00,,FEW250,0.00,VWS V14.01,2013-01-21 16:05:00,
2013-01-21 11:10:00,53.5,27.9,30.05,ENE,78,0.0,3.0,37,0.00,,FEW250,0.00,VWS V14.01,2013-01-21 16:10:00,
2013-01-21 11:15:00,53.9,26.9,30.05,ESE,104,3.0,4.0,35,0.00,,FEW250,0.00,VWS V14.01,2013-01-21 16:15:00,
2013-01-21 11:20:00,54.0,27.0,30.04,SSE,160,0.0,4.0,35,0.00,,FEW250,0.00,VWS V14.01,2013-01-21 16:20:00,
2013-01-21 11:25:00,53.8,27.5,30.04,SSW,207,2.0,3.0,36,0.00,,FEW250,0.00,VWS V14.01,2013-01-21 16:25:00,
2013-01-21 11:30:00,54.6,27.5,30.03,East,96,0.0,4.0,35,0.00,,FEW250,0.00,VWS V14.01,2013-01-21 16:30:00,
2013-01-21 11:35:00,54.9,26.4,30.03,SSW,206,1.0,5.0,33,0.00,,FEW250,0.00,VWS V14.01,2013-01-21 16:35:00,
2013-01-21 11:40:00,54.9,27.8,30.03,SE,124,0.0,6.0,35,0.00,,FEW250,0.00,VWS V14.01,2013-01-21 16:40:00,
2013-01-21 11:45:00,55.3,27.4,30.02,SE,146,0.0,3.0,34,0.00,,FEW250,0.00,VWS V14.01,2013-01-21 16:45:00,
2013-01-21 11:50:00,56.1,27.4,30.02,WNW,293,0.0,3.0,33,0.00,,FEW250,0.00,VWS V14.01,2013-01-21 16:50:00,
2013-01-21 11:55:00,56.4,26.2,30.01,SSE,163,1.0,3.0,31,0.00,,FEW250,0.00,VWS V14.01,2013-01-21 16:55:00,
2013-01-21 12:00:00,55.8,25.6,30.01,East,97,2.0,5.0,31,0.00,,FEW250,0.00,VWS V14.01,2013-01-21 17:00:00,
2013-01-21 12:05:00,55.1,26.5,30.00,West,270,1.0,4.0,33,0.00,,FEW250,0.00,VWS V14.01,2013-01-21 17:05:00,
2013-01-21 12:10:00,55.8,27.1,30.00,West,279,0.0,4.0,33,0.00,,FEW250,0.00,VWS V14.01,2013-01-21 17:10:00,
2013-01-21 12:15:00,56.7,26.4,30.00,SW,228,3.0,4.0,31,0.00,,FEW250,0.00,VWS V14.01,2013-01-21 17:15:00,
2013-01-21 12:20:00,56.9,29.5,29.99,NE,38,0.0,5.0,35,0.00,,FEW250,0.00,VWS V14.01,2013-01-21 17:20:00,
2013-01-21 12:25:00,57.3,27.0,29.99,WSW,256,0.0,5.0,31,0.00,,FEW250,0.00,VWS V14.01,2013-01-21 17:25:00,
2013-01-21 12:30:00,57.2,26.1,29.98,WSW,243,5.0,6.0,30,0.00,,FEW250,0.00,VWS V14.01,2013-01-21 17:30:00,
2013-01-21 12:35:00,56.9,25.0,29.98,WSW,247,2.0,6.0,29,0.00,,FEW250,0.00,VWS V14.01,2013-01-21 17:35:00,
2013-01-21 12:40:00,57.4,25.4,29.98,South,169,4.0,5.0,29,0.00,,FEW250,0.00,VWS V14.01,2013-01-21 17:40:00,
2013-01-21 12:45:00,57.2,25.2,29.98,SSE,155,0.0,5.0,29,0.00,,FEW250,0.00,VWS V14.01,2013-01-21 17:45:00,
2013-01-21 12:50:00,57.2,24.4,29.97,East,96,3.0,4.0,28,0.00,,FEW250,0.00,VWS V14.01,2013-01-21 17:50:00,
2013-01-21 12:55:00,57.5,25.5,29.96,SSW,200,0.0,6.0,29,0.00,,FEW250,0.00,VWS V14.01,2013-01-21 17:55:00,
2013-01-21 13:00:00,58.5,26.4,29.96,West,262,1.0,4.0,29,0.00,,FEW250,0.00,VWS V14.01,2013-01-21 18:00:00,
2013-01-21 13:05:00,58.6,25.6,29.96,SSW,207,1.0,6.0,28,0.00,,FEW250,0.00,VWS V14.01,2013-01-21 18:05:00,
2013-01-21 13:10:00,58.9,25.9,29.96,WNW,291,1.0,6.0,28,0.00,,FEW250,0.00,VWS V14.01,2013-01-21 18:10:00,
2013-01-21 13:15:00,59.2,24.4,29.96,WSW,245,5.0,7.0,26,0.00,,FEW250,0.00,VWS V14.01,2013-01-21 18:15:00,
2013-01-21 13:20:00,58.7,23.0,29.96,West,273,3.0,10.0,25,0.00,,FEW250,0.00,VWS V14.01,2013-01-21 18:20:00,
2013-01-21 13:25:00,58.2,22.6,29.95,WSW,255,5.0,7.0,25,0.00,,FEW250,0.00,VWS V14.01,2013-01-21 18:25:00,
2013-01-21 13:30:00,58.2,22.6,29.94,West,264,4.0,10.0,25,0.00,,FEW250,0.00,VWS V14.01,2013-01-21 18:30:00,
2013-01-21 13:35:00,58.1,23.4,29.94,WSW,248,2.0,7.0,26,0.00,,FEW250,0.00,VWS V14.01,2013-01-21 18:35:00,
2013-01-21 13:40:00,58.5,23.8,29.94,East,90,2.0,5.0,26,0.00,,FEW250,0.00,VWS V14.01,2013-01-21 18:40:00,
2013-01-21 13:45:00,58.6,22.9,29.93,WNW,284,4.0,7.0,25,0.00,,FEW250,0.00,VWS V14.01,2013-01-21 18:45:00,
2013-01-21 13:50:00,58.4,24.6,29.93,WSW,242,7.0,9.0,27,0.00,,FEW250,0.00,VWS V14.01,2013-01-21 18:50:00,
2013-01-21 13:55:00,58.2,24.4,29.93,West,264,2.0,8.0,27,0.00,,FEW250,0.00,VWS V14.01,2013-01-21 18:55:00,
2013-01-21 14:00:00,58.3,24.5,29.93,West,277,6.0,7.0,27,0.00,,FEW200,0.00,VWS V14.01,2013-01-21 19:00:00,
2013-01-21 14:05:00,58.4,24.6,29.93,West,263,7.0,8.0,27,0.00,,FEW200,0.00,VWS V14.01,2013-01-21 19:05:00,
2013-01-21 14:10:00,58.7,24.8,29.92,West,276,2.0,7.0,27,0.00,,FEW200,0.00,VWS V14.01,2013-01-21 19:10:00,
2013-01-21 14:15:00,58.5,23.8,29.92,West,266,2.0,8.0,26,0.00,,FEW200,0.00,VWS V14.01,2013-01-21 19:15:00,
2013-01-21 14:20:00,58.5,24.7,29.92,SW,236,5.0,8.0,27,0.00,,FEW200,0.00,VWS V14.01,2013-01-21 19:20:00,
2013-01-21 14:25:00,58.7,24.8,29.92,West,262,2.0,8.0,27,0.00,,FEW200,0.00,VWS V14.01,2013-01-21 19:25:00,
2013-01-21 14:30:00,58.9,25.0,29.91,West,274,1.0,6.0,27,0.00,,FEW200,0.00,VWS V14.01,2013-01-21 19:30:00,
2013-01-21 14:35:00,59.3,26.2,29.91,WSW,245,2.0,5.0,28,0.00,,FEW200,0.00,VWS V14.01,2013-01-21 19:35:00,
2013-01-21 14:40:00,59.4,25.4,29.91,West,274,1.0,8.0,27,0.00,,FEW200,0.00,VWS V14.01,2013-01-21 19:40:00,
2013-01-21 14:45:00,59.5,26.4,29.90,WSW,248,0.0,6.0,28,0.00,,FEW200,0.00,VWS V14.01,2013-01-21 19:45:00,
2013-01-21 14:50:00,59.4,26.3,29.90,WSW,245,6.0,12.0,28,0.00,,FEW200,0.00,VWS V14.01,2013-01-21 19:50:00,
2013-01-21 14:55:00,59.3,26.2,29.90,WSW,256,2.0,8.0,28,0.00,,FEW200,0.00,VWS V14.01,2013-01-21 19:55:00,
2013-01-21 15:00:00,59.4,26.3,29.89,SE,127,3.0,5.0,28,0.00,,FEW200,0.00,VWS V14.01,2013-01-21 20:00:00,
2013-01-21 15:05:00,59.4,26.3,29.89,SSW,199,2.0,7.0,28,0.00,,FEW200,0.00,VWS V14.01,2013-01-21 20:05:00,
2013-01-21 15:10:00,59.2,26.1,29.89,SSE,167,1.0,10.0,28,0.00,,FEW200,0.00,VWS V14.01,2013-01-21 20:10:00,
2013-01-21 15:15:00,59.3,27.1,29.89,WSW,238,3.0,6.0,29,0.00,,FEW200,0.00,VWS V14.01,2013-01-21 20:15:00,
2013-01-21 15:20:00,59.5,28.1,29.89,West,264,5.0,6.0,30,0.00,,FEW200,0.00,VWS V14.01,2013-01-21 20:20:00,
2013-01-21 15:25:00,59.3,27.1,29.88,West,281,9.0,10.0,29,0.00,,FEW200,0.00,VWS V14.01,2013-01-21 20:25:00,
2013-01-21 15:30:00,59.2,27.0,29.89,WNW,291,6.0,10.0,29,0.00,,FEW200,0.00,VWS V14.01,2013-01-21 20:30:00,
2013-01-21 15:35:00,59.2,27.8,29.89,WSW,240,4.0,12.0,30,0.00,,FEW200,0.00,VWS V14.01,2013-01-21 20:35:00,
2013-01-21 15:40:00,59.4,28.0,29.89,West,268,3.0,8.0,30,0.00,,FEW200,0.00,VWS V14.01,2013-01-21 20:40:00,
2013-01-21 15:45:00,59.3,27.9,29.88,West,268,1.0,8.0,30,0.00,,FEW200,0.00,VWS V14.01,2013-01-21 20:45:00,
2013-01-21 15:50:00,59.2,27.0,29.88,WNW,292,6.0,11.0,29,0.00,,FEW200,0.00,VWS V14.01,2013-01-21 20:50:00,
2013-01-21 15:55:00,58.9,27.5,29.88,WSW,254,3.0,10.0,30,0.00,,FEW200,0.00,VWS V14.01,2013-01-21 20:55:00,
2013-01-21 16:00:00,59.0,27.6,29.88,West,262,4.0,10.0,30,0.00,,FEW200,0.00,VWS V14.01,2013-01-21 21:00:00,
2013-01-21 16:05:00,58.8,28.3,29.88,WSW,241,4.0,11.0,31,0.00,,FEW200,0.00,VWS V14.01,2013-01-21 21:05:00,
2013-01-21 16:10:00,58.8,28.3,29.88,WSW,252,3.0,9.0,31,0.00,,FEW200,0.00,VWS V14.01,2013-01-21 21:10:00,
2013-01-21 16:15:00,58.7,28.2,29.88,West,266,2.0,8.0,31,0.00,,FEW200,0.00,VWS V14.01,2013-01-21 21:15:00,
2013-01-21 16:20:00,58.6,28.1,29.88,West,278,2.0,7.0,31,0.00,,FEW200,0.00,VWS V14.01,2013-01-21 21:20:00,
2013-01-21 16:25:00,58.5,28.0,29.87,WSW,249,4.0,8.0,31,0.00,,FEW200,0.00,VWS V14.01,2013-01-21 21:25:00,
2013-01-21 16:30:00,58.4,27.9,29.88,West,263,1.0,6.0,31,0.00,,FEW200,0.00,VWS V14.01,2013-01-21 21:30:00,
2013-01-21 16:35:00,58.3,27.8,29.87,WSW,257,1.0,7.0,31,0.00,,FEW200,0.00,VWS V14.01,2013-01-21 21:35:00,
2013-01-21 16:40:00,58.2,28.5,29.87,WSW,248,4.0,8.0,32,0.00,,FEW200,0.00,VWS V14.01,2013-01-21 21:40:00,
2013-01-21 16:45:00,58.2,28.5,29.87,WSW,247,3.0,7.0,32,0.00,,FEW200,0.00,VWS V14.01,2013-01-21 21:45:00,
2013-01-21 16:50:00,58.4,28.7,29.87,SSW,208,2.0,7.0,32,0.00,,FEW200,0.00,VWS V14.01,2013-01-21 21:50:00,
2013-01-21 16:55:00,58.5,28.8,29.87,West,268,0.0,6.0,32,0.00,,FEW200,0.00,VWS V14.01,2013-01-21 21:55:00,
2013-01-21 17:00:00,58.4,28.7,29.86,SW,235,1.0,4.0,32,0.00,,FEW200,0.00,VWS V14.01,2013-01-21 22:00:00,
2013-01-21 17:05:00,58.0,29.1,29.86,West,261,1.0,4.0,33,0.00,,FEW200,0.00,VWS V14.01,2013-01-21 22:05:00,
2013-01-21 17:10:00,57.7,28.8,29.86,WSW,255,1.0,4.0,33,0.00,,FEW200,0.00,VWS V14.01,2013-01-21 22:10:00,
2013-01-21 17:15:00,57.4,29.3,29.86,West,274,0.0,3.0,34,0.00,,FEW200,0.00,VWS V14.01,2013-01-21 22:15:00,
2013-01-21 17:20:00,57.1,29.0,29.86,West,267,0.0,1.0,34,0.00,,FEW200,0.00,VWS V14.01,2013-01-21 22:20:00,
2013-01-21 17:25:00,56.8,29.5,29.86,West,274,0.0,1.0,35,0.00,,FEW200,0.00,VWS V14.01,2013-01-21 22:25:00,
2013-01-21 17:30:00,56.5,29.2,29.86,West,262,0.0,1.0,35,0.00,,FEW200,0.00,VWS V14.01,2013-01-21 22:30:00,
2013-01-21 17:35:00,56.1,29.5,29.86,SE,124,0.0,1.0,36,0.00,,FEW200,0.00,VWS V14.01,2013-01-21 22:35:00,
2013-01-21 17:40:00,55.4,31.5,29.86,SE,124,0.0,0.0,40,0.00,,FEW200,0.00,VWS V14.01,2013-01-21 22:40:00,
2013-01-21 17:45:00,53.9,31.4,29.86,SE,124,0.0,0.0,42,0.00,,FEW200,0.00,VWS V14.01,2013-01-21 22:45:00,
2013-01-21 17:50:00,52.4,31.7,29.86,SE,124,0.0,0.0,45,0.00,,FEW200,0.00,VWS V14.01,2013-01-21 22:50:00,
2013-01-21 17:55:00,51.1,33.1,29.86,SE,124,0.0,0.0,50,0.00,,FEW200,0.00,VWS V14.01,2013-01-21 22:55:00,
2013-01-21 18:00:00,50.1,33.7,29.87,SE,124,0.0,0.0,53,0.00,,FEW200,0.00,VWS V14.01,2013-01-21 23:00:00,
2013-01-21 18:05:00,49.1,34.5,29.87,SE,124,0.0,0.0,57,0.00,,FEW200,0.00,VWS V14.01,2013-01-21 23:05:00,
2013-01-21 18:10:00,47.9,33.8,29.87,SE,124,0.0,0.0,58,0.00,,FEW200,0.00,VWS V14.01,2013-01-21 23:10:00,
2013-01-21 18:15:00,47.0,34.7,29.87,SE,124,0.0,0.0,62,0.00,,FEW200,0.00,VWS V14.01,2013-01-21 23:15:00,
2013-01-21 18:20:00,46.4,34.1,29.87,SE,124,0.0,0.0,62,0.00,,FEW200,0.00,VWS V14.01,2013-01-21 23:20:00,
2013-01-21 18:25:00,45.8,34.7,29.87,ESE,123,0.0,0.0,65,0.00,,FEW200,0.00,VWS V14.01,2013-01-21 23:25:00,
2013-01-21 18:30:00,45.2,34.5,29.87,ESE,122,0.0,0.0,66,0.00,,FEW200,0.00,VWS V14.01,2013-01-21 23:30:00,
2013-01-21 18:35:00,44.7,35.2,29.87,ESE,121,0.0,0.0,69,0.00,,FEW200,0.00,VWS V14.01,2013-01-21 23:35:00,
2013-01-21 18:40:00,44.1,34.6,29.87,ESE,121,0.0,0.0,69,0.00,,FEW200,0.00,VWS V14.01,2013-01-21 23:40:00,
2013-01-21 18:45:00,43.9,34.8,29.87,ESE,107,0.0,0.0,70,0.00,,FEW200,0.00,VWS V14.01,2013-01-21 23:45:00,
2013-01-21 18:50:00,43.6,34.5,29.87,ESE,106,0.0,0.0,70,0.00,,FEW200,0.00,VWS V14.01,2013-01-21 23:50:00,
2013-01-21 18:55:00,43.3,34.9,29.87,ESE,107,0.0,0.0,72,0.00,,FEW200,0.00,VWS V14.01,2013-01-21 23:55:00,
2013-01-21 19:00:00,43.7,34.9,29.88,SSE,147,0.0,0.0,71,0.00,,FEW200,0.00,VWS V14.01,2013-01-22 00:00:00,
2013-01-21 19:05:00,43.9,34.8,29.88,SSE,148,0.0,0.0,70,0.00,,FEW200,0.00,VWS V14.01,2013-01-22 00:05:00,
2013-01-21 19:10:00,43.8,32.4,29.87,SSE,164,0.0,2.0,64,0.00,,FEW200,0.00,VWS V14.01,2013-01-22 00:10:00,
2013-01-21 19:15:00,44.5,35.0,29.87,SSE,165,0.0,0.0,69,0.00,,FEW200,0.00,VWS V14.01,2013-01-22 00:15:00,
2013-01-21 19:20:00,44.5,35.0,29.88,WSW,254,0.0,0.0,69,0.00,,FEW200,0.00,VWS V14.01,2013-01-22 00:20:00,
2013-01-21 19:25:00,43.9,35.5,29.88,WSW,254,0.0,0.0,72,0.00,,FEW200,0.00,VWS V14.01,2013-01-22 00:25:00,
2013-01-21 19:30:00,43.6,34.5,29.88,WSW,254,0.0,0.0,70,0.00,,FEW200,0.00,VWS V14.01,2013-01-22 00:30:00,
2013-01-21 19:35:00,43.3,34.5,29.88,WSW,254,0.0,0.0,71,0.00,,FEW200,0.00,VWS V14.01,2013-01-22 00:35:00,
2013-01-21 19:40:00,43.2,34.8,29.88,WSW,254,0.0,0.0,72,0.00,,FEW200,0.00,VWS V14.01,2013-01-22 00:40:00,
2013-01-21 19:45:00,42.7,34.7,29.88,WSW,254,0.0,0.0,73,0.00,,FEW200,0.00,VWS V14.01,2013-01-22 00:45:00,
2013-01-21 19:50:00,43.5,32.9,29.89,WSW,255,0.0,2.0,66,0.00,,FEW200,0.00,VWS V14.01,2013-01-22 00:50:00,
2013-01-21 19:55:00,44.2,34.0,29.89,SW,226,0.0,2.0,67,0.00,,FEW200,0.00,VWS V14.01,2013-01-22 00:55:00,
2013-01-21 20:00:00,46.4,32.4,29.90,SW,236,4.0,7.0,58,0.00,,FEW200,0.00,VWS V14.01,2013-01-22 01:00:00,
2013-01-21 20:10:00,49.4,32.0,29.90,WSW,240,3.0,4.0,51,0.00,,FEW200,0.00,VWS V14.01,2013-01-22 01:10:00,
2013-01-21 20:15:00,49.8,31.4,29.90,West,274,0.0,3.0,49,0.00,,FEW200,0.00,VWS V14.01,2013-01-22 01:15:00,
2013-01-21 20:20:00,49.8,30.9,29.90,SW,217,1.0,2.0,48,0.00,,FEW200,0.00,VWS V14.01,2013-01-22 01:20:00,
2013-01-21 20:25:00,50.0,30.6,29.90,West,269,0.0,2.0,47,0.00,,FEW200,0.00,VWS V14.01,2013-01-22 01:25:00,
2013-01-21 20:30:00,49.7,30.8,29.91,WSW,239,0.0,0.0,48,0.00,,FEW200,0.00,VWS V14.01,2013-01-22 01:30:00,
2013-01-21 20:35:00,49.7,29.8,29.91,West,281,0.0,3.0,46,0.00,,FEW200,0.00,VWS V14.01,2013-01-22 01:35:00,
2013-01-21 20:40:00,49.6,29.7,29.91,West,271,0.0,1.0,46,0.00,,FEW200,0.00,VWS V14.01,2013-01-22 01:40:00,
2013-01-21 20:45:00,49.3,29.4,29.92,WSW,256,1.0,2.0,46,0.00,,FEW200,0.00,VWS V14.01,2013-01-22 01:45:00,
2013-01-21 20:50:00,49.5,28.0,29.92,WNW,301,0.0,4.0,43,0.00,,FEW200,0.00,VWS V14.01,2013-01-22 01:50:00,
2013-01-21 20:55:00,49.8,25.9,29.92,West,281,1.0,8.0,39,0.00,,FEW200,0.00,VWS V14.01,2013-01-22 01:55:00,
2013-01-21 21:00:00,49.8,23.3,29.92,WNW,300,1.0,10.0,35,0.00,,FEW200,0.00,VWS V14.01,2013-01-22 02:00:00,
2013-01-21 21:05:00,49.8,23.3,29.92,West,260,4.0,6.0,35,0.00,,FEW200,0.00,VWS V14.01,2013-01-22 02:05:00,
2013-01-21 21:10:00,49.6,23.1,29.92,West,269,0.0,5.0,35,0.00,,FEW200,0.00,VWS V14.01,2013-01-22 02:10:00,
2013-01-21 21:15:00,49.6,21.0,29.93,West,272,1.0,5.0,32,0.00,,FEW200,0.00,VWS V14.01,2013-01-22 02:15:00,
2013-01-21 21:20:00,49.5,20.9,29.93,West,269,1.0,4.0,32,0.00,,FEW200,0.00,VWS V14.01,2013-01-22 02:20:00,
2013-01-21 21:25:00,49.4,20.0,29.93,NW,307,2.0,5.0,31,0.00,,FEW200,0.00,VWS V14.01,2013-01-22 02:25:00,
2013-01-21 21:30:00,49.1,19.8,29.93,West,264,0.0,2.0,31,0.00,,FEW200,0.00,VWS V14.01,2013-01-22 02:30:00,
2013-01-21 21:35:00,48.8,19.5,29.93,WNW,295,1.0,4.0,31,0.00,,FEW200,0.00,VWS V14.01,2013-01-22 02:35:00,
2013-01-21 21:40:00,48.7,19.4,29.93,West,274,0.0,2.0,31,0.00,,FEW200,0.00,VWS V14.01,2013-01-22 02:40:00,
2013-01-21 21:45:00,48.3,19.8,29.93,WSW,257,0.0,3.0,32,0.00,,FEW200,0.00,VWS V14.01,2013-01-22 02:45:00,
2013-01-21 21:50:00,48.0,19.6,29.93,WSW,257,0.0,1.0,32,0.00,,FEW200,0.00,VWS V14.01,2013-01-22 02:50:00,
2013-01-21 21:55:00,47.6,19.9,29.94,WNW,284,0.0,1.0,33,0.00,,FEW200,0.00,VWS V14.01,2013-01-22 02:55:00,
2013-01-21 22:00:00,47.4,19.8,29.93,WSW,255,1.0,3.0,33,0.00,,FEW200,0.00,VWS V14.01,2013-01-22 03:00:00,
2013-01-21 22:10:00,47.5,18.4,29.93,West,276,2.0,4.0,31,0.00,,FEW200,0.00,VWS V14.01,2013-01-22 03:10:00,
2013-01-21 22:15:00,47.4,19.0,29.94,WSW,258,2.0,5.0,32,0.00,,FEW200,0.00,VWS V14.01,2013-01-22 03:15:00,
2013-01-21 22:20:00,47.1,18.8,29.94,NW,305,2.0,3.0,32,0.00,,FEW200,0.00,VWS V14.01,2013-01-22 03:20:00,
2013-01-21 22:25:00,47.2,18.1,29.94,WNW,291,1.0,4.0,31,0.00,,FEW200,0.00,VWS V14.01,2013-01-22 03:25:00,
2013-01-21 22:30:00,47.1,18.0,29.94,NW,304,0.0,3.0,31,0.00,,FEW200,0.00,VWS V14.01,2013-01-22 03:30:00,
2013-01-21 22:40:00,47.1,18.0,29.94,WNW,292,1.0,10.0,31,3.15,,FEW200,0.00,VWS V14.01,2013-01-22 03:40:00,
2013-01-21 22:50:00,46.3,18.1,29.94,WSW,250,3.0,3.0,32,0.00,,FEW200,0.00,VWS V14.01,2013-01-22 03:50:00,
2013-01-21 22:55:00,46.0,17.8,29.95,WNW,294,2.0,4.0,32,0.00,,FEW200,0.00,VWS V14.01,2013-01-22 03:55:00,
2013-01-21 23:00:00,45.9,18.4,29.95,WSW,250,0.0,3.0,33,0.00,,FEW200,0.00,VWS V14.01,2013-01-22 04:00:00,
2013-01-21 23:10:00,45.6,18.2,29.95,West,269,0.0,4.0,33,0.00,,FEW200,0.00,VWS V14.01,2013-01-22 04:10:00,
2013-01-21 23:15:00,45.3,17.9,29.95,WSW,253,1.0,1.0,33,0.00,,FEW200,0.00,VWS V14.01,2013-01-22 04:15:00,
2013-01-21 23:20:00,45.2,17.8,29.95,WSW,257,0.0,1.0,33,0.00,,FEW200,0.00,VWS V14.01,2013-01-22 04:20:00,
2013-01-21 23:25:00,44.7,18.1,29.95,WSW,257,0.0,1.0,34,0.00,,FEW200,0.00,VWS V14.01,2013-01-22 04:25:00,
2013-01-21 23:30:00,44.3,18.4,29.95,West,266,0.0,1.0,35,0.00,,FEW200,0.00,VWS V14.01,2013-01-22 04:30:00,
2013-01-21 23:35:00,43.9,18.0,29.95,West,266,0.0,1.0,35,0.00,,FEW200,0.00,VWS V14.01,2013-01-22 04:35:00,
2013-01-21 23:40:00,43.9,17.4,29.95,WNW,285,0.0,4.0,34,0.00,,FEW200,0.00,VWS V14.01,2013-01-22 04:40:00,
2013-01-21 23:45:00,43.9,17.4,29.95,SW,236,2.0,3.0,34,0.00,,FEW200,0.00,VWS V14.01,2013-01-22 04:45:00,
2013-01-21 23:50:00,43.9,16.7,29.95,West,281,0.0,4.0,33,0.00,,FEW200,0.00,VWS V14.01,2013-01-22 04:50:00,
2013-01-21 23:55:00,44.0,16.0,29.95,West,279,0.0,3.0,32,0.00,,FEW200,0.00,VWS V14.01,2013-01-22 04:55:00,